Marina Di Campo Airport

Jump to: basic info | weather | frequencies | runways | comments

Related pages: nearby airports | nearby navaids | notams | map

Basic information (top)

Codes: EBA LIRJ
Location: lon 42.760300, lat 10.239400, elev 31 ft / 9 m msl
Status: medium_airport

Weather (top)

Current conditions for Bastia-Poretta Airport 36nm (66km) WSW (rec'd 2014/11/28 21:00Z):

LFKB 282100Z 11015KT 9999 BKN010 FEW016CB BKN023 19/16 Q1008 RETS NOSIG

Airport forecast for Bastia-Poretta Airport 36nm (66km) WSW (rec'd 2014/11/28 18:15Z):

TAF LFKB 281700Z 2818/2918 25010KT 3000 TSRA BR BKN010 BKN016CB BKN023 
      BECMG 2818/2819 14025G35KT 
      TEMPO 2818/2821 0450 +TSRA FG BKN007 OVC015CB 
      BECMG 2822/2824 14015G25KT 8000 SCT010 BKN015 
      TEMPO 2900/2910 14010KT RA 
      BECMG 2910/2912 5000 RA TX19/2912Z TN13/2904Z

Frequencies (top)

Verify before use: may be inaccurate or out of date.

AFIS: 123.7 MHz (AFIS)

Runways (top)

16/34: 3,114 x 75 ft (949 x 23 m) — paved — not lighted — threshold 16 displaced 479 ft (146 m) — threshold 34 displaced 285 ft (87 m)

Latest comments (top)

No comments yet for Marina Di Campo Airport

More... (top)

See also NOTAMs and nearby airports and navaids, or visit the Marina Di Campo Airport page at the main OurAirports website..